{"data":{"norad_id":62835,"intl_designator":"2025-019G","name":"STARLINK-11546 [DTC]","alt_names":[],"object_type":"PAYLOAD","status":"ACTIVE","operator":null,"country":"US","launch_date":"2025-01-27","launch_site_code":"AFETR","launch_vehicle":null,"mission":null,"orbit_class":"UNKNOWN","rcs_meters":null,"size_class":null,"mass_kg":null,"dimensions":null,"purposes":["comms"],"wikipedia_slug":null,"has_3d_model":false,"image_url":null,"decayed_at":null,"tle_current":{"epoch":"2026-09-21T07:51:49.504320Z","epoch_age_seconds":96676,"freshness":"FRESH","line1":"1 62835U 25019G   26264.32765630  .00109709  00000+0  84668-3 0  9993","line2":"2 62835  42.9990 207.2688 0000768 340.1615  19.9223 15.70855974 94643","mean_motion":15.70855974,"eccentricity":7.68e-5,"inclination_deg":42.999,"raan_deg":207.2688,"arg_perigee_deg":340.1615,"mean_anomaly_deg":19.9223,"bstar":0.00084668,"rev_number":9464,"period_min":91.669766282469,"perigee_km":355.93218903796,"apogee_km":356.96662150981,"semimajor_km":6734.5864052739,"source":"CELESTRAK","updated_at":"2026-09-22T09:00:49.672207Z"}}}